Time,TemperatureF,DewpointF,PressureIn,WindDirection,WindDirectionDegrees,WindSpeedMPH,WindSpeedGustMPH,Humidity,HourlyPrecipIn,Conditions,Clouds,dailyrainin,SoftwareType,DateUTC
2013-01-17 00:05:00,31.6,28.2,30.01,SSW,198,5.0,6.0,87,0.00,,,0.00,Wunderground v.1.15,2013-01-17 05:05:00,
2013-01-17 00:10:00,31.6,28.2,30.01,SSW,210,5.0,6.0,87,0.00,,,0.00,Wunderground v.1.15,2013-01-17 05:10:00,
2013-01-17 00:15:00,31.7,28.3,30.01,South,179,6.0,6.0,87,0.00,,,0.00,Wunderground v.1.15,2013-01-17 05:15:00,
2013-01-17 00:20:00,31.7,28.3,30.01,SW,221,5.0,5.0,87,0.00,,,0.00,Wunderground v.1.15,2013-01-17 05:20:00,
2013-01-17 00:25:00,31.8,28.4,30.02,SSW,198,5.0,5.0,87,0.00,,,0.00,Wunderground v.1.15,2013-01-17 05:25:00,
2013-01-17 00:30:00,31.8,28.4,30.02,SSW,212,5.0,6.0,87,0.00,,,0.00,Wunderground v.1.15,2013-01-17 05:30:00,
2013-01-17 00:40:00,32.0,28.6,30.02,SSW,193,5.0,5.0,87,0.00,,,0.00,Wunderground v.1.15,2013-01-17 05:40:00,
2013-01-17 00:45:00,31.9,28.5,30.03,SSW,208,5.0,6.0,87,0.00,,,0.00,Wunderground v.1.15,2013-01-17 05:45:00,
2013-01-17 00:50:00,31.9,28.8,30.03,SSW,200,5.0,6.0,88,0.00,,,0.00,Wunderground v.1.15,2013-01-17 05:50:00,
2013-01-17 00:55:00,31.9,28.5,30.03,South,191,6.0,6.0,87,0.00,,,0.00,Wunderground v.1.15,2013-01-17 05:55:00,
2013-01-17 01:00:00,31.9,28.5,30.03,WSW,238,6.0,9.0,87,0.00,,,0.00,Wunderground v.1.15,2013-01-17 06:00:00,
2013-01-17 01:10:00,32.1,28.7,30.03,SSW,201,6.0,7.0,87,0.00,,,0.00,Wunderground v.1.15,2013-01-17 06:10:00,
2013-01-17 01:15:00,32.1,28.7,30.03,SSW,201,6.0,7.0,87,0.00,,,0.00,Wunderground v.1.15,2013-01-17 06:15:00,
2013-01-17 01:20:00,32.1,28.4,30.03,SW,214,6.0,6.0,86,0.00,,,0.00,Wunderground v.1.15,2013-01-17 06:20:00,
2013-01-17 01:30:00,32.2,28.5,30.04,South,191,5.0,6.0,86,0.00,,,0.00,Wunderground v.1.15,2013-01-17 06:30:00,
2013-01-17 01:35:00,32.2,28.5,30.04,SSW,198,5.0,6.0,86,0.00,,,0.00,Wunderground v.1.15,2013-01-17 06:35:00,
2013-01-17 01:40:00,32.2,28.5,30.04,SSW,204,6.0,6.0,86,0.00,,,0.00,Wunderground v.1.15,2013-01-17 06:40:00,
2013-01-17 01:45:00,32.2,28.5,30.04,SW,219,6.0,6.0,86,0.00,,,0.00,Wunderground v.1.15,2013-01-17 06:45:00,
2013-01-17 01:50:00,32.2,28.5,30.04,SSW,210,5.0,5.0,86,0.00,,,0.00,Wunderground v.1.15,2013-01-17 06:50:00,
2013-01-17 02:00:00,32.2,28.5,30.03,SW,214,5.0,5.0,86,0.00,,,0.00,Wunderground v.1.15,2013-01-17 07:00:00,
2013-01-17 02:10:00,32.2,28.5,30.04,SSW,203,4.0,5.0,86,0.00,,,0.00,Wunderground v.1.15,2013-01-17 07:10:00,
2013-01-17 02:15:00,32.2,28.5,30.05,SSW,194,4.0,5.0,86,0.00,,,0.00,Wunderground v.1.15,2013-01-17 07:15:00,
2013-01-17 02:20:00,32.2,28.5,30.05,SSW,198,4.0,4.0,86,0.00,,,0.00,Wunderground v.1.15,2013-01-17 07:20:00,
2013-01-17 02:25:00,32.2,28.5,30.05,SSW,210,4.0,7.0,86,0.00,,,0.00,Wunderground v.1.15,2013-01-17 07:25:00,
2013-01-17 02:30:00,32.3,28.6,30.05,South,186,4.0,4.0,86,0.00,,,0.00,Wunderground v.1.15,2013-01-17 07:30:00,
2013-01-17 02:40:00,32.3,28.6,30.05,SSW,199,4.0,4.0,86,0.00,,,0.00,Wunderground v.1.15,2013-01-17 07:40:00,
2013-01-17 02:50:00,32.3,28.3,30.06,SW,217,3.0,3.0,85,0.00,,,0.00,Wunderground v.1.15,2013-01-17 07:50:00,
2013-01-17 02:55:00,32.3,28.3,30.06,SSW,203,3.0,3.0,85,0.00,,,0.00,Wunderground v.1.15,2013-01-17 07:55:00,
2013-01-17 03:00:00,32.3,28.3,30.06,SW,225,3.0,3.0,85,0.00,,,0.00,Wunderground v.1.15,2013-01-17 08:00:00,
2013-01-17 03:10:00,32.3,28.3,30.07,WSW,243,2.0,2.0,85,0.00,,,0.00,Wunderground v.1.15,2013-01-17 08:10:00,
2013-01-17 03:15:00,32.3,28.0,30.06,South,186,2.0,3.0,84,0.00,,,0.00,Wunderground v.1.15,2013-01-17 08:15:00,
2013-01-17 03:20:00,32.4,28.1,30.06,SSW,197,1.0,2.0,84,0.00,,,0.00,Wunderground v.1.15,2013-01-17 08:20:00,
2013-01-17 03:25:00,32.4,27.8,30.06,SSE,165,2.0,3.0,83,0.00,,,0.00,Wunderground v.1.15,2013-01-17 08:25:00,
2013-01-17 03:30:00,32.4,27.8,30.06,SSE,156,3.0,3.0,83,0.00,,,0.00,Wunderground v.1.15,2013-01-17 08:30:00,
2013-01-17 03:35:00,32.4,27.8,30.07,South,181,2.0,3.0,83,0.00,,,0.00,Wunderground v.1.15,2013-01-17 08:35:00,
2013-01-17 03:40:00,32.5,27.9,30.07,SW,214,3.0,4.0,83,0.00,,,0.00,Wunderground v.1.15,2013-01-17 08:40:00,
2013-01-17 03:45:00,32.5,27.9,30.07,SSW,207,4.0,4.0,83,0.00,,,0.00,Wunderground v.1.15,2013-01-17 08:45:00,
2013-01-17 03:55:00,32.6,27.7,30.07,SW,214,3.0,3.0,82,0.00,,,0.00,Wunderground v.1.15,2013-01-17 08:55:00,
2013-01-17 04:00:00,32.6,27.7,30.08,SSW,196,3.0,3.0,82,0.00,,,0.00,Wunderground v.1.15,2013-01-17 09:00:00,
2013-01-17 04:10:00,32.6,27.7,30.07,South,191,3.0,4.0,82,0.00,,,0.00,Wunderground v.1.15,2013-01-17 09:10:00,
2013-01-17 04:15:00,32.6,27.7,30.07,South,177,3.0,4.0,82,0.00,,,0.00,Wunderground v.1.15,2013-01-17 09:15:00,
2013-01-17 04:20:00,32.6,27.7,30.07,WSW,253,3.0,3.0,82,0.00,,,0.00,Wunderground v.1.15,2013-01-17 09:20:00,
2013-01-17 04:30:00,32.6,27.7,30.07,SSE,148,2.0,3.0,82,0.00,,,0.00,Wunderground v.1.15,2013-01-17 09:30:00,
2013-01-17 04:35:00,32.6,27.7,30.08,SW,229,2.0,4.0,82,0.00,,,0.00,Wunderground v.1.15,2013-01-17 09:35:00,
2013-01-17 04:40:00,32.6,27.7,30.08,SSE,151,2.0,2.0,82,0.00,,,0.00,Wunderground v.1.15,2013-01-17 09:40:00,
2013-01-17 04:45:00,32.7,27.5,30.08,SSW,208,2.0,2.0,81,0.00,,,0.00,Wunderground v.1.15,2013-01-17 09:45:00,
2013-01-17 04:55:00,32.7,27.5,30.08,SSW,193,2.0,2.0,81,0.00,,,0.00,Wunderground v.1.15,2013-01-17 09:55:00,
2013-01-17 05:00:00,32.7,27.5,30.08,SW,214,2.0,2.0,81,0.00,,,0.00,Wunderground v.1.15,2013-01-17 10:00:00,
2013-01-17 05:10:00,32.7,27.5,30.08,SW,229,2.0,2.0,81,0.00,,,0.00,Wunderground v.1.15,2013-01-17 10:10:00,
2013-01-17 05:15:00,32.7,27.5,30.08,SSW,211,3.0,3.0,81,0.00,,,0.00,Wunderground v.1.15,2013-01-17 10:15:00,
2013-01-17 05:20:00,32.8,27.6,30.08,SW,225,2.0,2.0,81,0.00,,,0.00,Wunderground v.1.15,2013-01-17 10:20:00,
2013-01-17 05:25:00,32.8,27.3,30.08,SSW,198,2.0,4.0,80,0.00,,,0.00,Wunderground v.1.15,2013-01-17 10:25:00,
2013-01-17 05:30:00,32.8,27.6,30.08,South,177,2.0,4.0,81,0.00,,,0.00,Wunderground v.1.15,2013-01-17 10:30:00,
2013-01-17 05:40:00,32.8,27.6,30.09,SW,229,2.0,2.0,81,0.00,,,0.00,Wunderground v.1.15,2013-01-17 10:40:00,
2013-01-17 05:45:00,32.8,27.6,30.08,South,188,2.0,2.0,81,0.00,,,0.00,Wunderground v.1.15,2013-01-17 10:45:00,
2013-01-17 05:50:00,32.8,27.9,30.08,SSW,198,2.0,2.0,82,0.00,,,0.00,Wunderground v.1.15,2013-01-17 10:50:00,
2013-01-17 05:55:00,32.7,27.5,30.09,SSW,198,2.0,2.0,81,0.00,,,0.00,Wunderground v.1.15,2013-01-17 10:55:00,
2013-01-17 06:00:00,32.7,27.8,30.09,South,191,2.0,3.0,82,0.00,,,0.00,Wunderground v.1.15,2013-01-17 11:00:00,
2013-01-17 06:10:00,32.7,27.8,30.09,South,188,2.0,3.0,82,0.00,,,0.00,Wunderground v.1.15,2013-01-17 11:10:00,
2013-01-17 06:15:00,32.7,27.8,30.09,South,184,3.0,3.0,82,0.00,,,0.00,Wunderground v.1.15,2013-01-17 11:15:00,
2013-01-17 06:20:00,32.7,27.8,30.09,SSW,201,3.0,3.0,82,0.00,,,0.00,Wunderground v.1.15,2013-01-17 11:20:00,
2013-01-17 06:25:00,32.7,27.8,30.09,SSW,196,2.0,3.0,82,0.00,,,0.00,Wunderground v.1.15,2013-01-17 11:25:00,
2013-01-17 06:30:00,32.7,27.8,30.10,SSW,200,2.0,2.0,82,0.00,,,0.00,Wunderground v.1.15,2013-01-17 11:30:00,
2013-01-17 06:35:00,32.7,27.8,30.10,SW,225,2.0,2.0,82,0.00,,,0.00,Wunderground v.1.15,2013-01-17 11:35:00,
2013-01-17 06:40:00,32.7,28.1,30.10,SW,235,1.0,2.0,83,0.00,,,0.00,Wunderground v.1.15,2013-01-17 11:40:00,
2013-01-17 06:50:00,32.6,28.0,30.10,SW,218,2.0,2.0,83,0.00,,,0.00,Wunderground v.1.15,2013-01-17 11:50:00,
2013-01-17 06:55:00,32.6,28.0,30.10,SW,228,2.0,2.0,83,0.00,,,0.00,Wunderground v.1.15,2013-01-17 11:55:00,
2013-01-17 07:05:00,32.5,27.9,30.10,South,183,0.0,1.0,83,0.00,,,0.00,Wunderground v.1.15,2013-01-17 12:05:00,
2013-01-17 07:10:00,32.6,28.0,30.11,South,190,1.0,1.0,83,0.00,,,0.00,Wunderground v.1.15,2013-01-17 12:10:00,
2013-01-17 07:20:00,32.5,27.9,30.11,SW,214,1.0,1.0,83,0.00,,,0.00,Wunderground v.1.15,2013-01-17 12:20:00,
2013-01-17 07:30:00,32.5,28.2,30.11,SW,236,0.0,0.0,84,0.00,,,0.00,Wunderground v.1.15,2013-01-17 12:30:00,
2013-01-17 07:35:00,32.5,28.2,30.11,SW,236,0.0,0.0,84,0.00,,,0.00,Wunderground v.1.15,2013-01-17 12:35:00,
2013-01-17 07:40:00,32.5,28.2,30.11,NW,309,0.0,0.0,84,0.00,,,0.00,Wunderground v.1.15,2013-01-17 12:40:00,
2013-01-17 07:45:00,32.5,28.2,30.11,WSW,255,0.0,0.0,84,0.00,,,0.00,Wunderground v.1.15,2013-01-17 12:45:00,
2013-01-17 07:50:00,32.5,28.2,30.11,WNW,303,0.0,0.0,84,0.00,,,0.00,Wunderground v.1.15,2013-01-17 12:50:00,
2013-01-17 08:00:00,32.5,28.2,30.11,SW,217,0.0,0.0,84,0.00,,,0.00,Wunderground v.1.15,2013-01-17 13:00:00,
2013-01-17 08:10:00,32.5,28.2,30.12,SW,216,0.0,0.0,84,0.00,,,0.00,Wunderground v.1.15,2013-01-17 13:10:00,
2013-01-17 08:15:00,32.6,28.3,30.12,WSW,238,0.0,1.0,84,0.00,,,0.00,Wunderground v.1.15,2013-01-17 13:15:00,
2013-01-17 08:20:00,32.7,28.4,30.13,SSW,208,1.0,1.0,84,0.00,,,0.00,Wunderground v.1.15,2013-01-17 13:20:00,
2013-01-17 08:25:00,32.7,28.4,30.13,West,278,1.0,1.0,84,0.00,,,0.00,Wunderground v.1.15,2013-01-17 13:25:00,
2013-01-17 08:35:00,32.8,28.5,30.14,SW,224,1.0,1.0,84,0.00,,,0.00,Wunderground v.1.15,2013-01-17 13:35:00,
2013-01-17 08:40:00,32.9,28.6,30.15,SSW,210,1.0,1.0,84,0.00,,,0.00,Wunderground v.1.15,2013-01-17 13:40:00,
2013-01-17 08:52:00,33.0,29.0,30.16,South,190,2.0,2.0,85,0.00,,,0.00,Wunderground v.1.15,2013-01-17 13:52:00,
2013-01-17 09:00:00,33.1,29.1,30.17,SE,137,1.0,3.0,85,0.00,,,0.00,Wunderground v.1.15,2013-01-17 14:00:00,
2013-01-17 09:10:00,33.2,29.2,30.17,SW,214,2.0,2.0,85,0.00,,,0.00,Wunderground v.1.15,2013-01-17 14:10:00,
2013-01-17 09:15:00,33.2,29.2,30.17,SSW,200,1.0,2.0,85,0.00,,,0.00,Wunderground v.1.15,2013-01-17 14:15:00,
2013-01-17 09:25:00,33.3,29.3,30.17,SSW,193,1.0,2.0,85,0.00,,,0.00,Wunderground v.1.15,2013-01-17 14:25:00,
2013-01-17 09:30:00,33.3,29.3,30.17,South,179,2.0,2.0,85,0.00,,,0.00,Wunderground v.1.15,2013-01-17 14:30:00,
2013-01-17 09:35:00,33.4,29.4,30.17,SSW,203,2.0,2.0,85,0.00,,,0.00,Wunderground v.1.15,2013-01-17 14:35:00,
2013-01-17 09:40:00,33.4,29.4,30.17,SSW,200,1.0,2.0,85,0.00,,,0.00,Wunderground v.1.15,2013-01-17 14:40:00,
2013-01-17 09:45:00,33.5,29.5,30.17,SSW,198,2.0,2.0,85,0.00,,,0.00,Wunderground v.1.15,2013-01-17 14:45:00,
2013-01-17 09:50:00,33.5,29.5,30.17,SSW,205,2.0,2.0,85,0.00,,,0.00,Wunderground v.1.15,2013-01-17 14:50:00,
2013-01-17 09:55:00,33.5,29.8,30.17,SW,214,1.0,2.0,86,0.00,,,0.00,Wunderground v.1.15,2013-01-17 14:55:00,
2013-01-17 10:05:00,33.6,29.9,30.18,South,190,2.0,2.0,86,0.00,,,0.00,Wunderground v.1.15,2013-01-17 15:05:00,
2013-01-17 10:10:00,33.7,29.7,30.18,SSE,164,2.0,2.0,85,0.00,,,0.00,Wunderground v.1.15,2013-01-17 15:10:00,
2013-01-17 10:15:00,33.8,29.5,30.18,South,180,2.0,2.0,84,0.00,,,0.00,Wunderground v.1.15,2013-01-17 15:15:00,
2013-01-17 10:20:00,33.9,29.9,30.18,SSW,201,2.0,2.0,85,0.00,,,0.00,Wunderground v.1.15,2013-01-17 15:20:00,
2013-01-17 10:25:00,34.0,29.7,30.18,SW,217,2.0,2.0,84,0.00,,,0.00,Wunderground v.1.15,2013-01-17 15:25:00,
2013-01-17 10:35:00,34.3,29.7,30.17,SW,232,1.0,1.0,83,0.00,,,0.00,Wunderground v.1.15,2013-01-17 15:35:00,
2013-01-17 10:40:00,34.4,29.8,30.17,SW,221,1.0,1.0,83,0.00,,,0.00,Wunderground v.1.15,2013-01-17 15:40:00,
2013-01-17 10:45:00,34.5,29.9,30.17,West,259,1.0,1.0,83,0.00,,,0.00,Wunderground v.1.15,2013-01-17 15:45:00,
2013-01-17 10:50:00,34.6,30.0,30.16,WSW,253,1.0,3.0,83,0.00,,,0.00,Wunderground v.1.15,2013-01-17 15:50:00,
2013-01-17 10:55:00,34.6,29.7,30.16,West,281,1.0,3.0,82,0.00,,,0.00,Wunderground v.1.15,2013-01-17 15:55:00,
2013-01-17 11:00:00,34.7,29.8,30.16,WSW,249,1.0,2.0,82,0.00,,,0.00,Wunderground v.1.15,2013-01-17 16:00:00,
2013-01-17 11:10:00,34.7,29.8,30.16,South,188,2.0,2.0,82,0.00,,,0.00,Wunderground v.1.15,2013-01-17 16:10:00,
2013-01-17 11:15:00,34.8,29.9,30.16,SW,233,2.0,2.0,82,0.00,,,0.00,Wunderground v.1.15,2013-01-17 16:15:00,
2013-01-17 11:20:00,34.8,29.9,30.15,SSW,196,2.0,2.0,82,0.00,,,0.00,Wunderground v.1.15,2013-01-17 16:20:00,
2013-01-17 11:25:00,34.9,30.0,30.15,WSW,258,2.0,2.0,82,0.00,,,0.00,Wunderground v.1.15,2013-01-17 16:25:00,
2013-01-17 11:30:00,34.9,30.0,30.15,SW,217,2.0,2.0,82,0.00,,,0.00,Wunderground v.1.15,2013-01-17 16:30:00,
2013-01-17 11:35:00,35.1,30.2,30.15,West,270,1.0,3.0,82,0.00,,,0.00,Wunderground v.1.15,2013-01-17 16:35:00,
2013-01-17 11:40:00,35.2,30.3,30.15,West,267,1.0,1.0,82,0.00,,,0.00,Wunderground v.1.15,2013-01-17 16:40:00,
2013-01-17 11:50:00,35.2,30.0,30.14,West,271,2.0,2.0,81,0.00,,,0.00,Wunderground v.1.15,2013-01-17 16:50:00,
2013-01-17 11:55:00,35.2,30.0,30.14,WSW,248,3.0,3.0,81,0.00,,,0.00,Wunderground v.1.15,2013-01-17 16:55:00,
2013-01-17 12:00:00,35.3,30.1,30.13,NW,308,2.0,2.0,81,0.00,,,0.00,Wunderground v.1.15,2013-01-17 17:00:00,
2013-01-17 12:10:00,35.6,30.3,30.13,WNW,290,1.0,2.0,81,0.00,,,0.00,Wunderground v.1.15,2013-01-17 17:10:00,
2013-01-17 12:15:00,35.7,30.4,30.12,WSW,248,2.0,2.0,81,0.00,,,0.00,Wunderground v.1.15,2013-01-17 17:15:00,
2013-01-17 12:25:00,35.7,30.1,30.11,WNW,290,2.0,4.0,80,0.00,,,0.00,Wunderground v.1.15,2013-01-17 17:25:00,
2013-01-17 12:30:00,35.6,30.3,30.11,NW,322,2.0,2.0,81,0.00,,,0.00,Wunderground v.1.15,2013-01-17 17:30:00,
2013-01-17 12:35:00,35.6,30.0,30.11,WSW,248,2.0,2.0,80,0.00,,,0.00,Wunderground v.1.15,2013-01-17 17:35:00,
2013-01-17 12:40:00,35.6,30.0,30.11,SW,230,2.0,2.0,80,0.00,,,0.00,Wunderground v.1.15,2013-01-17 17:40:00,
2013-01-17 12:45:00,35.7,30.1,30.11,West,276,2.0,2.0,80,0.00,,,0.00,Wunderground v.1.15,2013-01-17 17:45:00,
2013-01-17 12:50:00,35.8,30.2,30.11,West,280,2.0,2.0,80,0.00,,,0.00,Wunderground v.1.15,2013-01-17 17:50:00,
2013-01-17 13:00:00,35.9,30.0,30.10,NE,46,2.0,3.0,79,0.00,,,0.00,Wunderground v.1.15,2013-01-17 18:00:00,
2013-01-17 13:10:00,35.9,30.3,30.10,ENE,70,2.0,2.0,80,0.00,,,0.00,Wunderground v.1.15,2013-01-17 18:10:00,
2013-01-17 13:15:00,35.9,29.7,30.10,NW,321,2.0,4.0,78,0.00,,,0.00,Wunderground v.1.15,2013-01-17 18:15:00,
2013-01-17 13:20:00,35.7,29.8,30.10,North,1,3.0,3.0,79,0.00,,,0.00,Wunderground v.1.15,2013-01-17 18:20:00,
2013-01-17 13:25:00,35.9,30.3,30.10,WSW,248,2.0,3.0,80,0.00,,,0.00,Wunderground v.1.15,2013-01-17 18:25:00,
2013-01-17 13:30:00,35.9,30.0,30.10,SW,221,1.0,1.0,79,0.00,,,0.00,Wunderground v.1.15,2013-01-17 18:30:00,
2013-01-17 13:40:00,35.9,29.4,30.10,West,274,2.0,2.0,77,0.00,,,0.00,Wunderground v.1.15,2013-01-17 18:40:00,
2013-01-17 13:45:00,36.0,29.5,30.10,NNE,13,1.0,2.0,77,0.00,,,0.00,Wunderground v.1.15,2013-01-17 18:45:00,
2013-01-17 13:50:00,36.2,29.0,30.10,WNW,288,1.0,2.0,75,0.00,,,0.00,Wunderground v.1.15,2013-01-17 18:50:00,
2013-01-17 13:55:00,36.2,29.0,30.09,NNE,24,2.0,2.0,75,0.00,,,0.00,Wunderground v.1.15,2013-01-17 18:55:00,
2013-01-17 14:00:00,36.2,28.4,30.10,SE,124,2.0,2.0,73,0.00,,,0.00,Wunderground v.1.15,2013-01-17 19:00:00,
2013-01-17 14:10:00,36.1,28.6,30.09,SSW,201,2.0,3.0,74,0.00,,,0.00,Wunderground v.1.15,2013-01-17 19:10:00,
2013-01-17 14:15:00,36.1,28.6,30.09,WNW,286,2.0,3.0,74,0.00,,,0.00,Wunderground v.1.15,2013-01-17 19:15:00,
2013-01-17 14:20:00,36.0,28.2,30.09,North,359,2.0,2.0,73,0.00,,,0.00,Wunderground v.1.15,2013-01-17 19:20:00,
2013-01-17 14:25:00,35.9,28.4,30.10,SW,233,2.0,2.0,74,0.00,,,0.00,Wunderground v.1.15,2013-01-17 19:25:00,
2013-01-17 14:30:00,35.9,28.4,30.10,North,354,1.0,1.0,74,0.00,,,0.00,Wunderground v.1.15,2013-01-17 19:30:00,
2013-01-17 14:35:00,36.0,28.8,30.09,SSW,208,1.0,2.0,75,0.00,,,0.00,Wunderground v.1.15,2013-01-17 19:35:00,
2013-01-17 14:40:00,36.0,29.2,30.09,WNW,285,1.0,1.0,76,0.00,,,0.00,Wunderground v.1.15,2013-01-17 19:40:00,
2013-01-17 14:45:00,36.0,28.5,30.09,SW,225,1.0,-999.0,74,0.00,,,0.00,Wunderground v.1.15,2013-01-17 19:45:00,
2013-01-17 14:50:00,36.0,28.8,30.09,West,270,1.0,-999.0,75,0.00,,,0.00,Wunderground v.1.15,2013-01-17 19:50:00,
2013-01-17 14:55:00,36.0,28.5,30.09,NW,315,1.0,-999.0,74,0.00,,,0.00,Wunderground v.1.15,2013-01-17 19:55:00,
2013-01-17 15:00:00,35.9,28.4,30.10,WSW,248,0.0,-999.0,74,0.00,,,0.00,Wunderground v.1.15,2013-01-17 20:00:00,
2013-01-17 15:05:00,36.0,28.5,30.10,WSW,248,1.0,-999.0,74,0.00,,,0.00,Wunderground v.1.15,2013-01-17 20:05:00,
2013-01-17 15:10:00,35.9,28.4,30.10,SW,225,1.0,-999.0,74,0.00,,,0.00,Wunderground v.1.15,2013-01-17 20:10:00,
2013-01-17 15:15:00,35.8,28.3,30.10,SSE,158,0.0,-999.0,74,0.00,,,0.00,Wunderground v.1.15,2013-01-17 20:15:00,
2013-01-17 15:20:00,35.8,28.0,30.11,SSE,158,0.0,-999.0,73,0.00,,,0.00,Wunderground v.1.15,2013-01-17 20:20:00,
2013-01-17 15:25:00,35.7,27.9,30.10,SSE,158,1.0,-999.0,73,0.00,,,0.00,Wunderground v.1.15,2013-01-17 20:25:00,
2013-01-17 15:30:00,35.7,28.6,30.10,South,180,1.0,-999.0,75,0.00,,,0.00,Wunderground v.1.15,2013-01-17 20:30:00,
2013-01-17 15:35:00,35.8,28.3,30.10,SSW,203,2.0,-999.0,74,0.00,,,0.00,Wunderground v.1.15,2013-01-17 20:35:00,
2013-01-17 15:40:00,35.7,27.9,30.11,SW,225,2.0,-999.0,73,0.00,,,0.00,Wunderground v.1.15,2013-01-17 20:40:00,
2013-01-17 15:45:00,35.6,27.5,30.11,West,270,1.0,-999.0,72,0.00,,,0.00,Wunderground v.1.15,2013-01-17 20:45:00,
2013-01-17 15:50:00,35.6,27.8,30.11,SW,225,1.0,-999.0,73,0.00,,,0.00,Wunderground v.1.15,2013-01-17 20:50:00,
2013-01-17 15:55:00,35.6,27.8,30.11,SW,225,0.0,-999.0,73,0.00,,,0.00,Wunderground v.1.15,2013-01-17 20:55:00,
2013-01-17 16:00:00,35.6,27.8,30.11,WSW,248,1.0,-999.0,73,0.00,,,0.00,Wunderground v.1.15,2013-01-17 21:00:00,
2013-01-17 16:05:00,35.5,27.7,30.10,West,270,1.0,-999.0,73,0.00,,,0.00,Wunderground v.1.15,2013-01-17 21:05:00,
2013-01-17 16:10:00,35.5,27.7,30.11,WSW,248,1.0,-999.0,73,0.00,,,0.00,Wunderground v.1.15,2013-01-17 21:10:00,
2013-01-17 16:15:00,35.6,27.8,30.11,WNW,293,1.0,-999.0,73,0.00,,,0.00,Wunderground v.1.15,2013-01-17 21:15:00,
2013-01-17 16:20:00,35.6,27.5,30.11,NNW,338,1.0,-999.0,72,0.00,,,0.00,Wunderground v.1.15,2013-01-17 21:20:00,
2013-01-17 16:25:00,35.6,27.8,30.11,WSW,248,1.0,-999.0,73,0.00,,,0.00,Wunderground v.1.15,2013-01-17 21:25:00,
2013-01-17 16:30:00,35.6,27.8,30.11,WSW,248,1.0,-999.0,73,0.00,,,0.00,Wunderground v.1.15,2013-01-17 21:30:00,
2013-01-17 16:35:00,35.6,27.8,30.11,WNW,293,1.0,-999.0,73,0.00,,,0.00,Wunderground v.1.15,2013-01-17 21:35:00,
2013-01-17 16:40:00,35.5,27.7,30.11,SW,225,1.0,-999.0,73,0.00,,,0.00,Wunderground v.1.15,2013-01-17 21:40:00,
2013-01-17 16:45:00,35.5,27.7,30.11,West,270,1.0,-999.0,73,0.00,,,0.00,Wunderground v.1.15,2013-01-17 21:45:00,
2013-01-17 16:50:00,35.4,27.9,30.11,WSW,248,1.0,-999.0,74,0.00,,,0.00,Wunderground v.1.15,2013-01-17 21:50:00,
2013-01-17 16:55:00,35.3,28.2,30.11,West,264,1.0,9.0,75,0.00,,,0.00,Wunderground v.1.15,2013-01-17 21:55:00,
2013-01-17 17:00:00,35.1,28.0,30.11,West,264,0.0,0.0,75,0.00,,,0.00,Wunderground v.1.15,2013-01-17 22:00:00,
2013-01-17 17:05:00,35.1,28.0,30.11,West,270,1.0,-999.0,75,0.00,,,0.00,Wunderground v.1.15,2013-01-17 22:05:00,
2013-01-17 17:10:00,34.8,28.0,30.11,SW,215,1.0,1.0,76,0.00,,,0.00,Wunderground v.1.15,2013-01-17 22:10:00,
2013-01-17 17:15:00,34.7,28.2,30.11,SW,225,1.0,-999.0,77,0.00,,,0.00,Wunderground v.1.15,2013-01-17 22:15:00,
2013-01-17 17:20:00,34.4,28.2,30.11,SW,235,1.0,1.0,78,0.00,,,0.00,Wunderground v.1.15,2013-01-17 22:20:00,
2013-01-17 17:25:00,34.3,28.2,30.12,SW,225,1.0,-999.0,78,0.00,,,0.00,Wunderground v.1.15,2013-01-17 22:25:00,
2013-01-17 17:30:00,34.1,28.6,30.13,SSW,197,1.0,2.0,80,0.00,,,0.00,Wunderground v.1.15,2013-01-17 22:30:00,
2013-01-17 17:35:00,34.0,28.5,30.14,SW,229,2.0,2.0,80,0.00,,,0.00,Wunderground v.1.15,2013-01-17 22:35:00,
2013-01-17 17:40:00,33.9,28.7,30.14,SW,231,1.0,1.0,81,0.00,,,0.00,Wunderground v.1.15,2013-01-17 22:40:00,
2013-01-17 17:45:00,33.6,28.4,30.15,SW,229,0.0,1.0,81,0.00,,,0.00,Wunderground v.1.15,2013-01-17 22:45:00,
2013-01-17 17:50:00,33.5,28.3,30.15,N/A,-737280,0.0,-999.0,81,0.00,,,0.00,Wunderground v.1.15,2013-01-17 22:50:00,
2013-01-17 17:55:00,33.1,28.2,30.15,SW,229,0.0,0.0,82,0.00,,,0.00,Wunderground v.1.15,2013-01-17 22:55:00,
2013-01-17 18:00:00,32.9,28.0,30.15,SW,229,0.0,0.0,82,0.00,,,0.00,Wunderground v.1.15,2013-01-17 23:00:00,
2013-01-17 18:05:00,32.8,28.2,30.15,N/A,-737280,0.0,-999.0,83,0.00,,,0.00,Wunderground v.1.15,2013-01-17 23:05:00,
2013-01-17 18:10:00,32.6,28.0,30.16,South,190,0.0,2.0,83,0.00,,,0.00,Wunderground v.1.15,2013-01-17 23:10:00,
2013-01-17 18:15:00,32.8,28.5,30.16,South,188,1.0,3.0,84,0.00,,,0.00,Wunderground v.1.15,2013-01-17 23:15:00,
2013-01-17 18:20:00,33.1,28.5,30.16,SSW,207,2.0,2.0,83,0.00,,,0.00,Wunderground v.1.15,2013-01-17 23:20:00,
2013-01-17 18:25:00,33.2,28.6,30.16,SSW,203,1.0,-999.0,83,0.00,,,0.00,Wunderground v.1.15,2013-01-17 23:25:00,
2013-01-17 18:30:00,33.4,28.8,30.16,SW,225,1.0,1.0,83,0.00,,,0.00,Wunderground v.1.15,2013-01-17 23:30:00,
2013-01-17 18:35:00,33.4,28.5,30.16,SSW,210,1.0,1.0,82,0.00,,,0.00,Wunderground v.1.15,2013-01-17 23:35:00,
2013-01-17 18:40:00,33.5,28.6,30.17,SW,214,1.0,1.0,82,0.00,,,0.00,Wunderground v.1.15,2013-01-17 23:40:00,
2013-01-17 18:45:00,33.5,28.6,30.16,SW,214,1.0,1.0,82,0.00,,,0.00,Wunderground v.1.15,2013-01-17 23:45:00,
2013-01-17 18:50:00,33.5,28.3,30.15,SW,222,0.0,0.0,81,0.00,,,0.00,Wunderground v.1.15,2013-01-17 23:50:00,
2013-01-17 18:55:00,33.5,28.3,30.15,WSW,248,1.0,-999.0,81,0.00,,,0.00,Wunderground v.1.15,2013-01-17 23:55:00,
2013-01-17 19:00:00,33.7,28.2,30.15,SW,225,1.0,-999.0,80,0.00,,,0.00,Wunderground v.1.15,2013-01-18 00:00:00,
2013-01-17 19:05:00,33.8,28.3,30.14,SSW,203,1.0,1.0,80,0.00,,,0.00,Wunderground v.1.15,2013-01-18 00:05:00,
2013-01-17 19:10:00,33.8,28.3,30.15,SSW,203,1.0,1.0,80,0.00,,,0.00,Wunderground v.1.15,2013-01-18 00:10:00,
2013-01-17 19:15:00,33.8,28.3,30.14,SW,225,1.0,-999.0,80,0.00,,,0.00,Wunderground v.1.15,2013-01-18 00:15:00,
2013-01-17 19:20:00,33.7,28.2,30.15,SW,214,0.0,1.0,80,0.00,,,0.00,Wunderground v.1.15,2013-01-18 00:20:00,
2013-01-17 19:25:00,33.6,28.1,30.15,SW,214,1.0,1.0,80,0.00,,,0.00,Wunderground v.1.15,2013-01-18 00:25:00,
2013-01-17 19:30:00,33.6,28.1,30.17,SSW,204,2.0,4.0,80,0.00,,,0.00,Wunderground v.1.15,2013-01-18 00:30:00,
2013-01-17 19:35:00,33.6,28.1,30.17,SSW,203,4.0,-999.0,80,0.00,,,0.00,Wunderground v.1.15,2013-01-18 00:35:00,
2013-01-17 19:40:00,33.6,28.4,30.18,SSW,197,4.0,5.0,81,0.00,,,0.00,Wunderground v.1.15,2013-01-18 00:40:00,
2013-01-17 19:45:00,33.6,28.4,30.18,SSW,204,4.0,6.0,81,0.00,,,0.00,Wunderground v.1.15,2013-01-18 00:45:00,
2013-01-17 19:50:00,33.7,28.5,30.17,SSW,203,4.0,6.0,81,0.00,,,0.00,Wunderground v.1.15,2013-01-18 00:50:00,
2013-01-17 19:55:00,33.6,28.4,30.17,SSW,203,4.0,4.0,81,0.00,,,0.00,Wunderground v.1.15,2013-01-18 00:55:00,
2013-01-17 20:00:00,33.6,28.4,30.17,SSW,203,4.0,-999.0,81,0.00,,,0.00,Wunderground v.1.15,2013-01-18 01:00:00,
2013-01-17 20:05:00,33.7,28.5,30.17,SSW,193,5.0,5.0,81,0.00,,,0.00,Wunderground v.1.15,2013-01-18 01:05:00,
2013-01-17 20:10:00,33.7,28.5,30.17,SSW,203,5.0,-999.0,81,0.00,,,0.00,Wunderground v.1.15,2013-01-18 01:10:00,
2013-01-17 20:15:00,33.6,28.4,30.17,SW,227,5.0,5.0,81,0.00,,,0.00,Wunderground v.1.15,2013-01-18 01:15:00,
2013-01-17 20:20:00,33.5,28.3,30.16,South,186,4.0,4.0,81,0.00,,,0.00,Wunderground v.1.15,2013-01-18 01:20:00,
2013-01-17 20:25:00,33.4,28.5,30.17,SSW,207,5.0,5.0,82,0.00,,,0.00,Wunderground v.1.15,2013-01-18 01:25:00,
2013-01-17 20:30:00,33.3,28.4,30.16,SSW,205,4.0,4.0,82,0.00,,,0.00,Wunderground v.1.15,2013-01-18 01:30:00,
2013-01-17 20:35:00,33.1,28.5,30.17,SSW,211,3.0,4.0,83,0.00,,,0.00,Wunderground v.1.15,2013-01-18 01:35:00,
2013-01-17 20:45:00,33.0,28.4,30.17,South,176,5.0,5.0,83,0.00,,,0.00,Wunderground v.1.15,2013-01-18 01:45:00,
2013-01-17 20:50:00,32.9,28.3,30.17,WSW,237,4.0,4.0,83,0.00,,,0.00,Wunderground v.1.15,2013-01-18 01:50:00,
2013-01-17 20:55:00,32.9,28.3,30.16,SSW,208,3.0,4.0,83,0.00,,,0.00,Wunderground v.1.15,2013-01-18 01:55:00,
2013-01-17 21:00:00,33.0,28.4,30.16,SW,214,3.0,3.0,83,0.00,,,0.00,Wunderground v.1.15,2013-01-18 02:00:00,
2013-01-17 21:10:00,32.9,28.0,30.17,West,261,4.0,4.0,82,0.00,,,0.00,Wunderground v.1.15,2013-01-18 02:10:00,
2013-01-17 21:15:00,32.9,28.0,30.17,WSW,239,4.0,4.0,82,0.00,,,0.00,Wunderground v.1.15,2013-01-18 02:15:00,
2013-01-17 21:20:00,33.0,27.8,30.17,SW,222,3.0,3.0,81,0.00,,,0.00,Wunderground v.1.15,2013-01-18 02:20:00,
2013-01-17 21:25:00,33.1,27.3,30.17,West,259,3.0,3.0,79,0.00,,,0.00,Wunderground v.1.15,2013-01-18 02:25:00,
2013-01-17 21:30:00,33.1,26.7,30.17,SW,226,3.0,4.0,77,0.00,,,0.00,Wunderground v.1.15,2013-01-18 02:30:00,
2013-01-17 21:35:00,33.0,26.6,30.17,SSW,207,3.0,5.0,77,0.00,,,0.00,Wunderground v.1.15,2013-01-18 02:35:00,
2013-01-17 21:40:00,33.0,26.3,30.17,WSW,255,3.0,6.0,76,0.00,,,0.00,Wunderground v.1.15,2013-01-18 02:40:00,
2013-01-17 21:45:00,32.8,25.4,30.18,SSW,210,4.0,6.0,74,0.00,,,0.00,Wunderground v.1.15,2013-01-18 02:45:00,
2013-01-17 21:55:00,32.2,24.2,30.18,WNW,291,4.0,4.0,72,0.00,,,0.00,Wunderground v.1.15,2013-01-18 02:55:00,
2013-01-17 22:00:00,32.0,23.3,30.19,WNW,294,3.0,3.0,70,0.00,,,0.00,Wunderground v.1.15,2013-01-18 03:00:00,
2013-01-17 22:10:00,31.3,22.6,30.18,WNW,282,2.0,2.0,70,0.00,,,0.00,Wunderground v.1.15,2013-01-18 03:10:00,
2013-01-17 22:15:00,31.0,22.4,30.18,SE,132,2.0,2.0,70,0.00,,,0.00,Wunderground v.1.15,2013-01-18 03:15:00,
2013-01-17 22:20:00,30.7,22.1,30.19,South,170,2.0,2.0,70,0.00,,,0.00,Wunderground v.1.15,2013-01-18 03:20:00,
2013-01-17 22:30:00,30.3,22.0,30.19,SE,130,4.0,4.0,71,0.00,,,0.00,Wunderground v.1.15,2013-01-18 03:30:00,
2013-01-17 22:40:00,29.8,21.9,30.20,West,264,3.0,5.0,72,0.00,,,0.00,Wunderground v.1.15,2013-01-18 03:40:00,
2013-01-17 22:45:00,29.6,22.0,30.20,NE,34,3.0,5.0,73,0.00,,,0.00,Wunderground v.1.15,2013-01-18 03:45:00,
2013-01-17 22:50:00,29.4,21.8,30.20,ENE,60,3.0,3.0,73,0.00,,,0.00,Wunderground v.1.15,2013-01-18 03:50:00,
2013-01-17 22:55:00,29.3,21.7,30.20,WNW,295,2.0,10.0,73,0.00,,,0.00,Wunderground v.1.15,2013-01-18 03:55:00,
2013-01-17 23:00:00,29.3,21.7,30.20,NE,34,3.0,4.0,73,0.00,,,0.00,Wunderground v.1.15,2013-01-18 04:00:00,
2013-01-17 23:10:00,29.2,21.9,30.21,NW,324,3.0,3.0,74,0.00,,,0.00,Wunderground v.1.15,2013-01-18 04:10:00,
2013-01-17 23:15:00,29.2,21.9,30.21,West,269,3.0,3.0,74,0.00,,,0.00,Wunderground v.1.15,2013-01-18 04:15:00,
2013-01-17 23:20:00,29.0,21.1,30.22,West,260,4.0,5.0,72,0.00,,,0.00,Wunderground v.1.15,2013-01-18 04:20:00,
2013-01-17 23:25:00,28.7,20.5,30.22,SW,221,4.0,5.0,71,0.00,,,0.00,Wunderground v.1.15,2013-01-18 04:25:00,
2013-01-17 23:30:00,28.6,20.7,30.22,South,180,3.0,3.0,72,0.00,,,0.00,Wunderground v.1.15,2013-01-18 04:30:00,
2013-01-17 23:35:00,28.4,20.8,30.22,SSW,197,2.0,3.0,73,0.00,,,0.00,Wunderground v.1.15,2013-01-18 04:35:00,
2013-01-17 23:40:00,28.3,20.7,30.22,NNE,27,3.0,3.0,73,0.00,,,0.00,Wunderground v.1.15,2013-01-18 04:40:00,
2013-01-17 23:45:00,28.2,21.0,30.23,SW,235,3.0,3.0,74,0.00,,,0.00,Wunderground v.1.15,2013-01-18 04:45:00,
2013-01-17 23:55:00,28.0,20.5,30.23,SSW,201,2.0,3.0,73,0.00,,,0.00,Wunderground v.1.15,2013-01-18 04:55:00,